Location: Bottenau
(48.5138°N, 8.0462°E)
Time: 08:55:53
(UTC+00:00)

Cosmos 1818 - Pass Details

Date: 18 April 2021
Orbit: 772 x 802 km, 65.0° (Epoch: 05 May)

Event Time Altitude Azimuth Distance (km) Brightness Sun altitude
Rises 19:04:39 0° 185° (S) 3,268 6.5 -7.1°
Reaches altitude 10° 19:07:17 10° 175° (S) 2,349 5.7 -7.5°
Maximum altitude 19:11:59 31° 115° (ESE) 1,361 4.3 -8.2°
Drops below altitude 10° 19:16:44 10° 54° (NE) 2,378 5.8 -8.9°
Sets 19:19:24 0° 45° (NE) 3,316 6.6 -9.3°
